[[{"header":{"parameterUnit":"m.s-1","parameterCategory":1,"la1":30.2991,"la2":30.254,"lo1":-89.0895,"lo2":-89.0444,"dy":0.0017,"dx":0.0017,"nx":28,"ny":28,"refTime":"2024-07-26T03:00:00:Z","depth":0,"parameterNumber":2,"parameterNumberName":"U-component_of_WINDS"},"data":[0,0,0,0,0,0,0,0,0,0,0,0,0,0,0,0,0,0,0,0,0,0,0,0,0,0,0,0,0,0,0,0,0,0,0,0,0,0,0,0,0,0,0,0,0,0,0,0,0,0,0,0,0,0,0,0,0,0,0.5689,0.569,0,0.5811,0.5812,0.5813,0.5876,0.5876,0.5876,0.5876,0.6003,0.6007,0.601,0,0,0,0,0,0,0,0,0,0,0,0,0,0.5512,0.5515,0.5689,0.569,0.5692,0.581,0.5812,0.5814,0.5876,0.5876,0.5876,0.5876,0.6002,0.6006,0.601,0,0,0,0,0,0,0,0,0,0,0,0,0,0.5607,0.5516,0.5689,0.5737,0.5743,0.581,0.5812,0.5814,0.5876,0.5876,0.5876,0.5876,0.6001,0.6006,0.6011,0.604,0,0,0.6026,0.6028,0,0,0,0,0,0,0,0,0.5601,0.5613,0.5729,0.5734,0.574,0.5828,0.5797,0.589,0.5876,0.5826,0.5876,0.5876,0.5945,0.5955,0.5978,0.6046,0.6051,0.6027,0.603,0.6032,0.6033,0,0,0,0,0,0,0,0.5595,0.5608,0.5737,0.573,0.5737,0.5754,0.5767,0.5814,0.5883,0.583,0.5835,0.5848,0.5949,0.5973,0.5981,0.6053,0.6026,0.6031,0.6034,0.6036,0.6151,0.6151,0,0,0,0,0,0,0.558,0.5603,0.5733,0.5741,0.567,0.5757,0.5772,0.58,0.5883,0.5896,0.5848,0.5851,0.5964,0.5975,0.5986,0.6025,0.6032,0.6036,0.6039,0.6151,0.6151,0.6151,0,0,0,0,0,0,0.5576,0.5591,0.5728,0.5673,0.5692,0.576,0.5791,0.5802,0.5826,0.5897,0.591,0.586,0.5965,0.5979,0.6026,0.603,0.6039,0.6043,0.6151,0.6151,0.6151,0.6103,0,0,0,0,0,0,0.5571,0.5589,0.5601,0.5673,0.5694,0.5765,0.5791,0.5805,0.5835,0.5839,0.5911,0.5923,0.5966,0.6018,0.603,0.6037,0.6047,0.6151,0.6151,0.6151,0.6104,0.6101,0.6099,0,0,0,0,0,0.5564,0.5583,0.5601,0.5616,0.571,0.5765,0.5778,0.5826,0.5835,0.5847,0.5892,0.5921,0.6027,0.6022,0.6037,0.6045,0.615,0.6151,0.6151,0.6106,0.6102,0.6099,0,0,0,0,0,0,0.551,0.5593,0.5614,0.5656,0.5703,0.5776,0.5793,0.582,0.5866,0.5869,0.5927,0.5943,0.5984,0.602,0.6012,0.6077,0.6092,0.6095,0.6052,0.6049,0.6047,0.6037,0.6051,0,0,0,0,0,0.5503,0.5541,0.5612,0.5642,0.5665,0.5724,0.575,0.5783,0.5834,0.5855,0.5903,0.5953,0.5997,0.6025,0.607,0.611,0.6126,0.6123,0.612,0.6117,0.6119,0.6142,0.6141,0.6151,0.6151,0.6151,0,0,0.5489,0.5539,0.556,0.5633,0.5673,0.5711,0.5741,0.578,0.5809,0.5861,0.5908,0.5945,0.6004,0.6047,0.6068,0.6078,0.612,0.6117,0.6114,0.6118,0.6142,0.6141,0.614,0.6151,0.6151,0.6151,0,0,0.5483,0.5524,0.5554,0.5594,0.5654,0.5693,0.57,0.5769,0.5795,0.5843,0.5883,0.5918,0.5994,0.6034,0.6064,0.6073,0.6101,0.6086,0.6071,0.6093,0.6092,0.6091,0.6094,0.6094,0.6088,0.6087,0.6087,0,0.5458,0.5516,0.5566,0.5603,0.5634,0.5682,0.5713,0.5749,0.5821,0.5841,0.5851,0.5946,0.5989,0.6042,0.6043,0.6067,0.6077,0.6078,0.6088,0.6088,0.6088,0.6091,0.6092,0.6085,0.6085,0.6086,0.6086,0,0.5483,0.5523,0.554,0.5607,0.564,0.5673,0.5729,0.5756,0.5786,0.5824,0.5872,0.5926,0.5982,0.5997,0.6027,0.6054,0.6058,0.6077,0.6093,0.6084,0.6088,0.609,0.6082,0.6083,0.6083,0.6084,0,0,0.5446,0.554,0.5545,0.5576,0.5646,0.5678,0.5714,0.5768,0.579,0.5838,0.587,0.5932,0.595,0.5984,0.6019,0.6038,0.604,0.6055,0.6057,0.605,0.6073,0.6058,0.6059,0.606,0.606,0.606,0.6068,0,0.5449,0.5515,0.5561,0.5609,0.5646,0.5692,0.5724,0.577,0.5807,0.5844,0.5886,0.5929,0.5949,0.597,0.5991,0.6035,0.6046,0.6036,0.609,0.6091,0.6073,0.6061,0.6046,0.605,0.607,0.607,0.6071,0,0.5462,0.5508,0.5559,0.5624,0.5642,0.5669,0.5722,0.5757,0.5811,0.5836,0.5874,0.5909,0.5949,0.5961,0.6018,0.601,0.6035,0.606,0.6061,0.6068,0.608,0.6067,0.6053,0.6053,0.6074,0.6073,0.6073,0,0.5429,0.5504,0.5544,0.5569,0.5646,0.5664,0.5697,0.5751,0.578,0.5827,0.5847,0.5897,0.5925,0.5964,0.6012,0.6017,0.6063,0.608,0.6086,0.6084,0.6093,0.6092,0.6083,0.611,0.611,0.611,0.611,0,0.5428,0.5458,0.553,0.5555,0.559,0.5642,0.5675,0.5712,0.5759,0.5792,0.5835,0.5866,0.5928,0.5965,0.6004,0.6044,0.6056,0.6078,0.6088,0.6074,0.6071,0.6091,0.6092,0.611,0.611,0.611,0.611,0,0.5398,0.5447,0.5494,0.5563,0.5581,0.5603,0.5663,0.5689,0.5728,0.5769,0.5782,0.5843,0.589,0.5942,0.6006,0.6032,0.607,0.6084,0.6051,0.6057,0.6059,0.6058,0.6062,0.6065,0.609,0.609,0.6089,0,0.5393,0.5417,0.5488,0.5513,0.5545,0.5584,0.5614,0.5667,0.5696,0.5759,0.5777,0.5827,0.5869,0.5942,0.5993,0.6042,0.6057,0.6055,0.6065,0.605,0.6057,0.6055,0.6057,0.6052,0.6052,0.6051,0.6051,0,0.538,0.5403,0.5445,0.5494,0.5529,0.5571,0.5614,0.5632,0.5694,0.5725,0.5773,0.5806,0.5871,0.5919,0.5975,0.601,0.604,0.6047,0.6051,0.6037,0.6017,0.6028,0.6043,0.6047,0.6048,0.6048,0.6048,0.6048,0.5362,0.5385,0.5439,0.5483,0.5522,0.5561,0.5589,0.5631,0.5671,0.5728,0.5757,0.5804,0.5857,0.5934,0.5968,0.6006,0.6016,0.6022,0.6023,0.6024,0.602,0.6011,0.6016,0.6017,0.6017,0.6017,0.6017,0,0.5351,0.5388,0.5428,0.5487,0.5522,0.5548,0.5597,0.5625,0.5666,0.5712,0.5753,0.5807,0.5855,0.5909,0.596,0.598,0.5995,0.5991,0.599,0.5997,0.6008,0.5999,0.5978,0.5978,0.5978,0.5978,0.5978,0.5978,0.5349,0.5389,0.5419,0.5478,0.5515,0.5561,0.5587,0.5624,0.5661,0.572,0.5759,0.5794,0.5844,0.5898,0.5943,0.5958,0.5974,0.5966,0.5985,0.5993,0.5997,0.6,0.5992,0.5969,0.5969,0.5971,0.5971,0.5971]},{"header":{"parameterUnit":"m.s-1","parameterCategory":1,"la1":30.2991,"la2":30.254,"lo1":-89.0895,"lo2":-89.0444,"dy":0.0017,"dx":0.0017,"nx":28,"ny":28,"refTime":"2024-07-26T03:00:00:Z","depth":0,"parameterNumber":3,"parameterNumberName":"V-component_of_WINDS"},"data":[0,0,0,0,0,0,0,0,0,0,0,0,0,0,0,0,0,0,0,0,0,0,0,0,0,0,0,0,0,0,0,0,0,0,0,0,0,0,0,0,0,0,0,0,0,0,0,0,0,0,0,0,0,0,0,0,0,0,3.593,3.5929,0,3.5844,3.5843,3.5842,3.5831,3.5832,3.5833,3.5834,3.5737,3.5733,3.573,0,0,0,0,0,0,0,0,0,0,0,0,0,3.6075,3.6072,3.593,3.5929,3.5928,3.5845,3.5843,3.5842,3.5831,3.5832,3.5833,3.5834,3.5738,3.5734,3.573,0,0,0,0,0,0,0,0,0,0,0,0,0,3.6002,3.6071,3.593,3.5913,3.591,3.5845,3.5843,3.5842,3.5831,3.5832,3.5834,3.5835,3.5739,3.5734,3.5729,3.5673,0,0,3.5714,3.5712,0,0,0,0,0,0,0,0,3.6007,3.5997,3.5916,3.5914,3.5911,3.585,3.5859,3.5785,3.5831,3.5861,3.5834,3.5835,3.5773,3.5765,3.5746,3.5668,3.5664,3.5713,3.571,3.5708,3.5707,0,0,0,0,0,0,0,3.6012,3.6001,3.5896,3.5915,3.5912,3.5906,3.5897,3.5845,3.581,3.5858,3.5857,3.5848,3.5771,3.5751,3.5744,3.5662,3.5713,3.5709,3.5706,3.5704,3.5532,3.5531,0,0,0,0,0,0,3.6021,3.6005,3.5898,3.5893,3.5963,3.5902,3.5893,3.5868,3.5811,3.5804,3.5847,3.5848,3.5759,3.5749,3.574,3.5669,3.5708,3.5703,3.57,3.5534,3.5532,3.553,0,0,0,0,0,0,3.6024,3.6012,3.5902,3.5949,3.5935,3.5899,3.5871,3.5866,3.5845,3.5803,3.5795,3.5833,3.5759,3.5747,3.569,3.5666,3.5701,3.5697,3.5536,3.5533,3.5531,3.5527,0,0,0,0,0,0,3.6029,3.6013,3.5993,3.5949,3.5932,3.5856,3.587,3.5863,3.5838,3.5838,3.5787,3.578,3.576,3.5698,3.5685,3.5659,3.5693,3.5537,3.5535,3.5532,3.5529,3.5525,3.5521,0,0,0,0,0,3.6034,3.5993,3.5992,3.5979,3.5907,3.5855,3.5845,3.5825,3.5836,3.5814,3.5787,3.5782,3.5671,3.5692,3.5677,3.565,3.5539,3.5535,3.5532,3.5531,3.5526,3.5522,0,0,0,0,0,0,3.6032,3.5987,3.5985,3.593,3.5897,3.5853,3.5825,3.582,3.578,3.5782,3.5756,3.5744,3.5688,3.5663,3.5687,3.5591,3.5605,3.5599,3.561,3.5604,3.56,3.5607,3.5688,0,0,0,0,0,3.6027,3.5991,3.5952,3.5907,3.589,3.5861,3.5837,3.5825,3.5788,3.5772,3.5741,3.5702,3.5659,3.563,3.5588,3.5526,3.5514,3.55,3.5496,3.5493,3.5487,3.5451,3.5444,3.5519,3.5519,3.5519,0,0,3.6012,3.5983,3.5961,3.5906,3.5878,3.5839,3.5849,3.5806,3.5776,3.5765,3.571,3.5685,3.564,3.558,3.5552,3.5558,3.5464,3.5489,3.5487,3.5482,3.5447,3.544,3.5434,3.5517,3.5517,3.5518,0,0,3.5966,3.5942,3.5901,3.5874,3.5834,3.5815,3.5805,3.5762,3.5746,3.5691,3.5682,3.5644,3.557,3.5538,3.5512,3.5455,3.5448,3.5442,3.5421,3.5386,3.538,3.5375,3.5353,3.5345,3.5437,3.5437,3.5437,0,3.5952,3.5896,3.588,3.5839,3.5813,3.5806,3.5763,3.5736,3.5683,3.5664,3.5672,3.5579,3.5549,3.5481,3.5467,3.5447,3.5433,3.5447,3.5383,3.5377,3.5372,3.5351,3.5343,3.5436,3.5436,3.5436,3.5436,0,3.588,3.5841,3.5813,3.5765,3.5737,3.5695,3.567,3.5642,3.5633,3.5612,3.5555,3.5518,3.5468,3.5451,3.544,3.5381,3.5386,3.5389,3.5402,3.5365,3.5344,3.5336,3.5435,3.5435,3.5436,3.5436,0,0,3.5829,3.5775,3.5765,3.5743,3.5698,3.5666,3.5623,3.5577,3.5553,3.5517,3.5478,3.5416,3.5419,3.539,3.5375,3.5345,3.53,3.5351,3.535,3.5342,3.5231,3.5228,3.5219,3.5297,3.5295,3.5294,3.5234,0,3.5777,3.5704,3.5688,3.5623,3.5585,3.5578,3.554,3.5506,3.5486,3.5448,3.5424,3.5381,3.5388,3.537,3.5341,3.5312,3.5277,3.5317,3.5257,3.5255,3.5267,3.5209,3.5205,3.5151,3.5226,3.5225,3.5224,0,3.5706,3.5671,3.5604,3.5564,3.5548,3.5514,3.5471,3.5437,3.5398,3.5385,3.5353,3.5342,3.5294,3.5311,3.5243,3.527,3.5244,3.5227,3.5224,3.5216,3.5236,3.5197,3.5134,3.5125,3.5212,3.5213,3.5213,0,3.5674,3.561,3.5561,3.5543,3.5496,3.5472,3.5451,3.5414,3.5388,3.5349,3.5331,3.5286,3.526,3.5224,3.52,3.5215,3.5133,3.5149,3.5118,3.5119,3.51,3.5101,3.5029,3.5086,3.5086,3.5087,3.5087,0,3.5616,3.5574,3.5546,3.5516,3.5468,3.545,3.5402,3.5381,3.5348,3.5311,3.5301,3.5266,3.5237,3.5197,3.5178,3.5123,3.5112,3.5098,3.5093,3.5098,3.5099,3.5079,3.5082,3.5084,3.5085,3.5085,3.5086,0,3.5571,3.5551,3.5497,3.5459,3.5448,3.5414,3.5379,3.5348,3.5328,3.5281,3.5269,3.5236,3.5189,3.5162,3.5101,3.5088,3.5027,3.5024,3.5041,3.5038,3.5009,3.5012,3.492,3.4907,3.4975,3.4974,3.4974,0,3.5535,3.5504,3.5462,3.5439,3.5418,3.538,3.5353,3.5334,3.5306,3.526,3.5234,3.5187,3.5148,3.5072,3.504,3.4994,3.4989,3.496,3.4981,3.4987,3.4986,3.4988,3.4984,3.4956,3.4955,3.4955,3.4954,0,3.5472,3.5465,3.5429,3.539,3.536,3.5327,3.5294,3.5274,3.5248,3.5217,3.5171,3.5141,3.5081,3.5033,3.4984,3.4958,3.4951,3.4948,3.4938,3.4942,3.4953,3.4945,3.5029,3.495,3.495,3.4951,3.4951,3.4951,3.543,3.5401,3.5368,3.5328,3.5303,3.5272,3.5241,3.5219,3.518,3.5132,3.5122,3.5072,3.5033,3.4967,3.4941,3.4899,3.4904,3.489,3.4886,3.4883,3.4881,3.4961,3.489,3.489,3.489,3.489,3.489,0,3.5365,3.5344,3.5308,3.5265,3.5233,3.5233,3.5196,3.5169,3.5126,3.5092,3.5055,3.5001,3.4955,3.4921,3.4873,3.4846,3.4841,3.4834,3.4834,3.4828,3.488,3.4893,3.4838,3.4838,3.4838,3.4838,3.4838,3.4838,3.5328,3.528,3.5268,3.5205,3.5183,3.5137,3.5116,3.5088,3.5061,3.5001,3.4964,3.4944,3.4909,3.4858,3.4815,3.4806,3.4788,3.4781,3.4771,3.4819,3.4825,3.483,3.4842,3.4777,3.4777,3.4722,3.4722,3.4721]}]]